Regional Weather Roundup
Issued by NWS Albany, NY

Home | Current Version | Previous Version | Text Only | Print | Product List | Glossary On
Versions: 1 2 3 4 5 6 7 8 9 10 11 12 13 14 15 16 17 18 19 20 21 22 23 24 25 26 27
000
ASUS41 KALY 280210
RWRALY

NEW YORK STATE HOURLY WEATHER ROUNDUP
NATIONAL WEATHER SERVICE ALBANY NY
1000 PM EDT SAT AUG 27 2016

NOTE: "FAIR" INDICATES FEW OR NO CLOUDS BELOW 12,000 FEET WITH NO
SIGNIFICANT WEATHER AND/OR NO OBSTRUCTIONS TO VISIBILITY.

NYZ032-033-038>043-046>054-057>066-NYZ062>081-082-084-280300-
EAST


CITY           SKY/WX    TMP DP  RH WIND       PRES   REMARKS
ALBANY         PTCLDY    73  66  78 CALM      30.21R
GLENS FALLS    MOCLDY    72  65  78 CALM      30.22R
POUGHKEEPSIE   CLEAR     72  64  76 SE5       30.20R
NEWBURGH       CLEAR     75  66  73 CALM      30.24R
MONTGOMERY     CLEAR     69  67  93 SW3       30.22R
WHITE PLAINS   PTCLDY    70  61  73 CALM      30.23R
ISLIP          PTCLDY    72  65  78 CALM      30.22S
NEW YORK CITY  PTCLDY    81  58  45 SE5       30.21S
CENTRAL PARK   CLEAR     77  56  48 CALM      30.25R
$$

NYZ005>009-017-018-044>046-055-056-280300-
CENTRAL


CITY           SKY/WX    TMP DP  RH WIND       PRES   REMARKS
FULTON         CLOUDY    69  62  78 E3        30.19F
SYRACUSE       PTCLDY    69  66  90 E3        30.19S
ROME           CLEAR     68  64  87 CALM      30.22R
ELMIRA         CLEAR     69  64  84 CALM      30.21R
BINGHAMTON     CLEAR     73  61  65 S5        30.25R
MONTICELLO     CLEAR     66  64  94 CALM      30.28S
$$

NYZ026>034-041>043-087-280300-
NORTH


CITY           SKY/WX    TMP DP  RH WIND       PRES   REMARKS
WATERTOWN      PTCLDY    65  61  87 E6        30.20S
FORT DRUM      NOT AVBL
MASSENA        PTCLDY    67  58  72 CALM      30.23S
SARANAC LAKE   CLEAR     62  56  80 CALM      30.26S
PLATTSBURGH    PTCLDY    67  60  78 W5        30.23S
$$

NYZ001>004-010>016-019>021-085-280300-
WEST


CITY           SKY/WX    TMP DP  RH WIND       PRES   REMARKS
NIAGARA FALLS  CLOUDY    75  60  59 E9        30.14F
BUFFALO        CLOUDY    74  62  66 E9        30.15F
DUNKIRK        MOCLDY    71  67  87 S6        30.14F
JAMESTOWN      CLOUDY    72  63  73 S5        30.20F
WELLSVILLE     CLEAR     72  63  73 S6        30.27S
ROCHESTER      CLOUDY    72  62  71 SE8       30.19S
PENN YAN       CLEAR     68  63  84 CALM      30.21S
$$

             KEY
       WCI = WIND CHILL INDEX
       VSB = VISIBILITY
       HX  = HEAT INDEX
$$




USA.gov is the U.S. government's official web portal to all federal, state and local government web resources and services.